FW0887 Weather Reports


time (UTC)temp
C
wind
direction
speed
KPH
gust
KPH
rain 1hr
cm
rain 24hr
cm
rain mn
cm
humidity
%
barometer
mb
20260506062349 11 0.0 3.2 0.00 2.21 0.00 91 1007.0
20260506044533 10 197 1.6 6.4 0.00 2.21 0.00 92 1006.5
20260506043023 10 198 0.0 4.8 0.00 2.21 0.00 92 1006.4
20260506042153 11 0.0 1.6 0.00 2.21 0.00 92 1007.5
20260506041522 10 197 0.0 8.0 0.00 2.21 0.00 92 1006.4
20260506040022 10 212 0.0 6.4 0.00 2.21 0.00 92 1006.1
20260506034522 10 211 0.0 3.2 0.00 2.21 0.00 92 1006.2
20260506033027 10 211 0.0 3.2 0.00 2.21 0.00 92 1006.3
20260506032226 11 203 3.2 4.8 0.00 2.21 0.00 92 1007.6
20260506031538 10 211 1.6 4.8 0.00 2.21 0.00 92 1006.2
20260506030021 10 209 1.6 4.8 0.00 2.21 0.00 92 1006.5
20260506024526 10 209 0.0 1.6 0.00 2.21 0.00 91 1006.5
20260506023018 10 209 0.0 1.6 0.00 2.21 0.00 91 1006.4
20260506022157 10 203 1.6 3.2 0.00 2.21 0.00 91 1007.7
20260506021518 10 209 0.0 4.8 0.00 2.21 0.00 91 1006.5
20260506020017 10 209 0.0 8.0 0.00 2.21 0.00 91 1006.3
20260506014514 11 206 0.0 6.4 0.00 2.21 0.00 92 1006.2
20260506013017 11 206 0.0 3.2 0.00 2.21 0.00 91 1006.4
20260506012252 11 203 1.6 3.2 0.00 2.21 0.00 91 1007.8
20260506011517 11 206 0.0 4.8 0.00 2.21 0.00 91 1006.4
20260506010029 11 206 0.0 3.2 0.00 2.21 0.00 91 1006.5
20260506004509 11 222 0.0 3.2 0.00 2.21 0.00 91 1006.6
20260506003009 11 222 1.6 4.8 0.00 2.21 0.00 91 1006.5
20260506002217 11 0.0 1.6 0.00 2.21 0.00 91 1007.9
20260506001507 11 236 0.0 4.8 0.00 2.21 0.00 91 1006.6
20260506000005 11 236 0.0 3.2 0.00 2.21 0.00 91 1006.7
20260505234503 11 236 0.0 1.6 0.00 2.21 0.00 91 1006.8
20260505233002 12 236 0.0 6.4 0.00 2.21 0.00 91 1007.0
20260505231858 12 0.0 0.0 0.00 2.21 0.00 91 1008.2
20260505231854 12 0.0 1.6 0.00 2.21 0.00 91 1008.3
20260505231600 12 236 0.0 3.2 0.00 2.21 0.00 91 1006.9
20260505230100 12 236 0.0 3.2 0.00 2.21 0.00 91 1006.9
20260505224558 12 236 1.6 6.4 0.00 2.21 0.00 91 1007.0
20260505223057 12 265 0.0 3.2 0.00 2.21 0.00 91 1006.9
20260505222153 12 315 1.6 3.2 0.00 2.21 0.00 90 1008.0
20260505221556 12 313 1.6 4.8 0.00 2.21 0.00 90 1006.9
20260505220053 12 323 0.0 1.6 0.00 2.21 0.00 90 1006.7
20260505214609 12 323 0.0 0.0 0.00 2.21 2.21 89 1006.5
20260505213050 12 323 1.6 3.2 0.00 2.21 2.21 90 1006.7
20260505212125 12 0.0 1.6 0.00 2.21 2.21 89 1007.9
20260505211549 12 327 0.0 1.6 0.00 2.21 2.21 89 1006.7
20260505210048 12 327 0.0 1.6 0.00 2.21 2.21 89 1006.9
20260505204547 12 327 0.0 1.6 0.00 2.21 2.21 89 1006.8
20260505203048 12 332 0.0 3.2 0.00 2.21 2.21 89 1006.7
20260505202152 13 0.0 0.0 0.00 2.21 2.21 89 1007.4
20260505201552 12 22 0.0 0.0 0.00 2.21 2.21 89 1006.3
20260505200045 12 22 0.0 0.0 0.00 2.21 2.21 88 1006.2
20260505194545 12 22 0.0 0.0 0.03 2.21 2.21 89 1006.0
20260505193044 13 22 0.0 0.0 0.03 2.21 2.21 89 1005.7
20260505192016 13 0.0 0.0 0.03 2.21 2.21 88 1006.5
20260505191550 13 22 0.0 0.0 0.03 2.21 2.21 88 1005.7
20260505190041 13 22 0.0 1.6 0.03 2.21 2.21 88 1005.5
20260505184543 13 22 0.0 3.2 0.00 2.21 2.21 88 1005.2
20260505183102 13 44 0.0 4.8 0.10 2.21 2.21 88 1005.1
20260505182211 13 315 1.6 3.2 2.18 2.21 2.21 87 1005.8
20260505181539 13 64 0.0 4.8 1.73 2.21 2.21 87 1005.0
20260505180037 13 41 0.0 8.0 2.21 2.21 2.21 87 1004.9
20260505174537 13 295 0.0 12.9 2.21 2.21 2.21 85 1005.2
20260505173042 13 360 1.6 11.3 2.08 2.08 2.08 83 1006.0
20260505172145 17 225 6.4 9.7 0.00 0.00 0.00 73 1006.7
20260505171543 16 212 8.0 30.6 0.33 0.33 0.33 76 1006.0
20260505170031 18 269 8.0 25.7 0.00 0.00 0.00 66 1004.8
20260505164530 20 319 0.0 8.0 0.00 0.00 0.00 63 1003.2
20260505163029 21 51 1.6 8.0 0.00 0.00 0.00 62 1003.2
20260505162117 22 23 4.8 8.0 0.00 0.00 0.00 58 1004.7
20260505161529 21 319 3.2 9.7 0.00 0.00 0.00 58 1003.3
20260505153027 23 282 4.8 14.5 0.00 0.00 0.00 54 1003.2
20260505152047 23 68 6.4 11.3 0.00 0.00 0.00 53 1004.9
20260505151531 23 317 3.2 12.9 0.00 0.00 0.00 55 1003.4
20260505124514 25 194 0.0 4.8 0.00 0.00 0.00 41 1004.6
20260505123012 26 265 1.6 11.3 0.00 0.00 0.00 43 1004.7
20260505122155 25 338 1.6 3.2 0.00 0.00 0.00 47 1006.6
20260505121509 25 70 3.2 8.0 0.00 0.00 0.00 45 1004.9
20260505120021 25 123 3.2 6.4 0.00 0.00 0.00 39 1005.1
20260505114504 25 292 3.2 11.3 0.00 0.00 0.00 45 1005.3
20260505113002 24 213 1.6 6.4 0.00 0.00 0.00 44 1005.4
20260505112021 24 180 3.2 3.2 0.00 0.00 0.00 44 1007.4
20260505111558 23 173 1.6 4.8 0.00 0.00 0.00 43 1005.6
20260505101750 23 225 4.8 6.4 0.00 0.00 0.00 55 1007.9
20260505101552 22 215 3.2 9.7 0.00 0.00 0.00 54 1006.2
20260505100049 22 227 3.2 9.7 0.00 0.00 0.00 53 1006.4
20260505094546 22 229 3.2 8.0 0.00 0.00 0.00 54 1006.3
20260505093045 22 244 1.6 8.0 0.00 0.00 0.00 58 1006.5
20260505092143 22 0.0 1.6 0.00 0.00 0.00 58 1008.4
20260505091543 22 41 0.0 4.8 0.00 0.00 0.00 59 1006.7
20260505090045 22 251 3.2 6.4 0.00 0.00 0.00 60 1006.8
20260505084537 21 323 1.6 6.4 0.00 0.00 0.00 60 1007.0
20260505083033 21 334 1.6 11.3 0.00 0.00 0.00 60 1007.0
20260505082016 21 0.0 1.6 0.00 0.00 0.00 60 1008.7
20260505081538 21 9 0.0 3.2 0.00 0.00 0.00 62 1007.1
20260505080036 20 53 1.6 4.8 0.00 0.00 0.00 62 1007.3
20260505074525 20 25 0.0 3.2 0.00 0.00 0.00 64 1007.5
20260505073037 19 300 0.0 6.4 0.00 0.00 0.00 66 1007.6
20260505071947 18 0 1.6 4.8 0.00 0.00 0.00 67 1009.2
20260505071520 18 333 1.6 6.4 0.00 0.00 0.00 65 1007.6